Location: Peterborough
(44.3091°N, 78.3197°W)
Time: 23:43:01
(UTC-04:00)

S-56A Canister/Altair - Pass Details

Date: 31 March 2023
Orbit: 639 x 2492 km, 38.9° (Epoch: 02 June)

Event Time Altitude Azimuth Distance (km) Brightness Sun altitude
Rises 20:39:15 0° 263° (W) 4,799 12.9 -11.3°
Reaches altitude 10° 20:42:03 10° 261° (W) 4,031 12.3 -11.8°
Maximum altitude 20:53:19 70° 181° (S) 2,312 9.8 -13.7°
Enters shadow 21:05:14 18° 104° (ESE) 4,442 10.7 -15.7°
